Radiation Dose at Monitoring Post of Fukushima Daini Nuclear Power Station
Date,Time,MP-1(microSv/h),MP-2(microSv/h),MP-3(microSv/h),MP-4(microSv/h),MP-5(microSv/h),MP-6(microSv/h),MP-7(microSv/h),Wind Direction,Wind Velocity(m/s),Rain
2016/12/15,00:00,0.378,0.228,0.392,0.362,0.338,0.187,0.159,west-northwest,7.3,No
2016/12/15,00:10,0.379,0.230,0.393,0.363,0.339,0.187,0.159,west-northwest,5.4,No
2016/12/15,00:20,0.378,0.230,0.392,0.363,0.337,0.187,0.160,west,4.4,No
2016/12/15,00:30,0.378,0.230,0.392,0.363,0.338,0.188,0.160,west-northwest,1.9,No
2016/12/15,00:40,0.379,0.228,0.391,0.363,0.339,0.187,0.159,west,2.7,No
2016/12/15,00:50,0.379,0.228,0.390,0.362,0.338,0.187,0.159,west,2.8,No
2016/12/15,01:00,0.380,0.228,0.391,0.363,0.338,0.186,0.159,west,5.3,No
2016/12/15,01:10,0.377,0.230,0.393,0.362,0.338,0.186,0.160,west-northwest,2.9,No
2016/12/15,01:20,0.379,0.229,0.393,0.363,0.337,0.188,0.160,northwest,1.2,No
2016/12/15,01:30,0.379,0.229,0.391,0.363,0.339,0.188,0.159,northwest,1.1,No
2016/12/15,01:40,0.379,0.229,0.390,0.362,0.339,0.187,0.158,northwest,1.2,No
2016/12/15,01:50,0.378,0.227,0.391,0.363,0.339,0.187,0.159,west-southwest,1.1,No
2016/12/15,02:00,0.381,0.229,0.392,0.363,0.339,0.187,0.159,southwest,1.1,No
2016/12/15,02:10,0.378,0.229,0.391,0.363,0.340,0.186,0.160,east-northeast,0.7,No
2016/12/15,02:20,0.379,0.229,0.391,0.361,0.339,0.188,0.159,south,1.3,No
2016/12/15,02:30,0.377,0.229,0.392,0.363,0.339,0.187,0.159,south,2.9,No
2016/12/15,02:40,0.378,0.229,0.392,0.363,0.337,0.187,0.160,south-southwest,2.5,No
2016/12/15,02:50,0.379,0.229,0.393,0.362,0.338,0.187,0.159,west-southwest,2.1,No
2016/12/15,03:00,0.381,0.229,0.391,0.363,0.339,0.187,0.159,south-southwest,3.0,No
2016/12/15,03:10,0.379,0.228,0.390,0.363,0.338,0.187,0.159,south-southwest,2.8,No
2016/12/15,03:20,0.380,0.229,0.394,0.364,0.340,0.188,0.160,southwest,3.1,No
2016/12/15,03:30,0.378,0.230,0.392,0.363,0.339,0.187,0.159,west-southwest,2.5,No
2016/12/15,03:40,0.382,0.229,0.392,0.363,0.340,0.187,0.159,west-southwest,2.5,No
2016/12/15,03:50,0.379,0.230,0.392,0.363,0.338,0.187,0.159,west-southwest,3.1,No
2016/12/15,04:00,0.380,0.229,0.392,0.363,0.338,0.187,0.160,west,3.9,No
2016/12/15,04:10,0.378,0.231,0.394,0.364,0.338,0.187,0.160,west-northwest,5.6,No
2016/12/15,04:20,0.379,0.229,0.391,0.364,0.337,0.187,0.159,west-northwest,5.3,No
2016/12/15,04:30,0.380,0.228,0.393,0.362,0.338,0.188,0.159,west-northwest,5.3,No
2016/12/15,04:40,0.379,0.229,0.392,0.363,0.337,0.187,0.160,west-northwest,6.4,No
2016/12/15,04:50,0.379,0.228,0.393,0.363,0.338,0.188,0.159,west-northwest,7.4,No
2016/12/15,05:00,0.380,0.230,0.393,0.363,0.339,0.187,0.159,west,7.3,No
2016/12/15,05:10,0.380,0.229,0.390,0.362,0.338,0.186,0.159,west,7.4,No
2016/12/15,05:20,0.380,0.229,0.391,0.364,0.339,0.187,0.160,west,8.4,No
2016/12/15,05:30,0.377,0.229,0.394,0.364,0.338,0.187,0.159,west,5.9,No
2016/12/15,05:40,0.379,0.231,0.393,0.363,0.339,0.187,0.160,west-northwest,4.2,No
2016/12/15,05:50,0.380,0.229,0.393,0.364,0.338,0.187,0.159,west,5.1,No
2016/12/15,06:00,0.379,0.231,0.392,0.362,0.339,0.188,0.159,west,4.4,No
2016/12/15,06:10,0.378,0.230,0.393,0.363,0.340,0.187,0.159,west,5.3,No
2016/12/15,06:20,0.379,0.229,0.393,0.362,0.338,0.187,0.161,west,6.7,No
2016/12/15,06:30,0.379,0.230,0.392,0.363,0.339,0.188,0.159,west-northwest,5.3,No
2016/12/15,06:40,0.380,0.230,0.393,0.364,0.339,0.187,0.160,west-northwest,5.8,No
2016/12/15,06:50,0.379,0.229,0.391,0.363,0.337,0.187,0.159,west-northwest,5.9,No
2016/12/15,07:00,0.377,0.230,0.393,0.363,0.337,0.187,0.160,west-northwest,5.3,No
2016/12/15,07:10,0.378,0.229,0.394,0.364,0.338,0.187,0.159,west-northwest,6.4,No
2016/12/15,07:20,0.381,0.230,0.391,0.364,0.338,0.188,0.160,west,5.2,No
2016/12/15,07:30,0.379,0.231,0.393,0.362,0.339,0.188,0.158,northwest,6.1,No
2016/12/15,07:40,0.379,0.229,0.393,0.364,0.339,0.187,0.159,west,5.5,No
2016/12/15,07:50,0.379,0.230,0.393,0.363,0.337,0.187,0.158,west,5.5,No
2016/12/15,08:00,0.380,0.229,0.393,0.361,0.338,0.188,0.159,west,5.6,No
2016/12/15,08:10,0.380,0.229,0.392,0.363,0.338,0.188,0.160,west-northwest,3.5,No
2016/12/15,08:20,0.378,0.229,0.392,0.362,0.339,0.186,0.160,west-northwest,3.6,No
2016/12/15,08:30,0.378,0.230,0.393,0.363,0.339,0.186,0.160,west,2.8,No
2016/12/15,08:40,0.380,0.229,0.392,0.363,0.337,0.187,0.159,west-northwest,2.8,No
2016/12/15,08:50,0.381,0.230,0.393,0.364,0.340,0.186,0.160,northwest,2.5,No
2016/12/15,09:00,0.379,0.230,0.392,0.362,0.338,0.187,0.159,northwest,2.2,No
2016/12/15,09:10,0.379,0.229,0.393,0.363,0.339,0.186,0.159,north-northwest,3.5,No
2016/12/15,09:20,0.379,0.228,0.391,0.363,0.339,0.187,0.159,west,4.4,No
2016/12/15,09:30,0.379,0.229,0.394,0.364,0.339,0.188,0.159,west-northwest,3.7,No
2016/12/15,09:40,0.378,0.229,0.392,0.363,0.340,0.189,0.159,northwest,3.6,No
2016/12/15,09:50,0.378,0.229,0.393,0.362,0.337,0.188,0.160,northwest,4.2,No
2016/12/15,10:00,0.380,0.228,0.394,0.364,0.338,0.188,0.161,west-northwest,5.3,No
2016/12/15,10:10,0.378,0.228,0.393,0.362,0.338,0.187,0.160,west-northwest,5.4,No
2016/12/15,10:20,0.377,0.228,0.393,0.362,0.337,0.188,0.160,west-northwest,6.0,No
2016/12/15,10:30,0.377,0.230,0.394,0.364,0.340,0.187,0.161,west,5.9,No
2016/12/15,10:40,0.378,0.229,0.391,0.362,0.338,0.189,0.160,west-northwest,5.8,No
2016/12/15,10:50,0.379,0.229,0.393,0.364,0.339,0.189,0.160,west-northwest,6.0,No
2016/12/15,11:00,0.379,0.230,0.394,0.363,0.339,0.188,0.161,west-northwest,6.9,No
2016/12/15,11:10,0.379,0.229,0.393,0.365,0.338,0.188,0.160,west-northwest,4.7,No
2016/12/15,11:20,0.379,0.229,0.393,0.365,0.338,0.188,0.161,west,4.0,No
2016/12/15,11:30,0.378,0.230,0.396,0.363,0.338,0.188,0.161,northwest,5.3,No
2016/12/15,11:40,0.377,0.230,0.394,0.365,0.340,0.188,0.161,west-northwest,4.8,No
2016/12/15,11:50,0.379,0.230,0.391,0.363,0.338,0.188,0.160,northwest,7.5,No
2016/12/15,12:00,0.378,0.229,0.393,0.365,0.338,0.189,0.161,west-northwest,7.5,No
2016/12/15,12:10,0.379,0.230,0.391,0.364,0.337,0.189,0.160,west-northwest,6.7,No
2016/12/15,12:20,0.379,0.230,0.394,0.363,0.339,0.190,0.161,west-northwest,7.3,No
2016/12/15,12:30,0.378,0.229,0.392,0.364,0.340,0.189,0.161,west-northwest,4.4,No
2016/12/15,12:40,0.378,0.231,0.391,0.363,0.341,0.188,0.161,northwest,5.8,No
2016/12/15,12:50,0.378,0.230,0.394,0.366,0.339,0.190,0.161,north-northwest,6.9,No
2016/12/15,13:00,0.380,0.229,0.393,0.362,0.341,0.187,0.161,northwest,3.9,No
2016/12/15,13:10,0.379,0.230,0.395,0.366,0.340,0.189,0.161,northwest,5.3,No
2016/12/15,13:20,0.378,0.230,0.392,0.366,0.340,0.189,0.161,northwest,7.0,No
2016/12/15,13:30,0.379,0.229,0.393,0.363,0.341,0.189,0.161,northwest,6.2,No
2016/12/15,13:40,0.382,0.231,0.396,0.366,0.339,0.189,0.161,northwest,4.3,No
2016/12/15,13:50,0.378,0.229,0.392,0.363,0.339,0.190,0.161,north-northwest,5.6,No
2016/12/15,14:00,0.381,0.230,0.395,0.365,0.339,0.188,0.162,west-northwest,3.3,No
2016/12/15,14:10,0.381,0.231,0.395,0.364,0.340,0.188,0.161,west,4.1,No
2016/12/15,14:20,0.378,0.229,0.394,0.367,0.340,0.189,0.161,north-northwest,5.2,No
2016/12/15,14:30,0.379,0.230,0.394,0.367,0.339,0.187,0.161,west-northwest,3.3,No
2016/12/15,14:40,0.381,0.231,0.395,0.364,0.342,0.188,0.162,north-northwest,3.9,No
2016/12/15,14:50,0.379,0.230,0.394,0.365,0.339,0.188,0.162,northwest,4.6,No
2016/12/15,15:00,0.380,0.230,0.395,0.365,0.340,0.189,0.162,northwest,4.2,No
2016/12/15,15:10,0.378,0.230,0.395,0.365,0.343,0.189,0.162,west-northwest,3.6,No
2016/12/15,15:20,0.382,0.230,0.395,0.368,0.342,0.187,0.161,north,5.5,No
2016/12/15,15:30,0.380,0.230,0.395,0.366,0.341,0.189,0.161,north-northwest,4.5,No
2016/12/15,15:40,0.379,0.230,0.397,0.365,0.340,0.189,0.161,northwest,3.8,No
2016/12/15,15:50,0.380,0.230,0.393,0.367,0.342,0.189,0.161,northwest,3.7,No
2016/12/15,16:00,0.381,0.231,0.393,0.367,0.339,0.190,0.161,west-northwest,3.1,No
2016/12/15,16:10,0.381,0.231,0.396,0.365,0.339,0.188,0.161,north-northwest,1.6,No
2016/12/15,16:20,0.382,0.230,0.394,0.366,0.340,0.189,0.161,west,1.6,No
2016/12/15,16:30,0.382,0.229,0.396,0.369,0.339,0.190,0.162,west-southwest,2.1,No
2016/12/15,16:40,0.382,0.231,0.395,0.366,0.339,0.189,0.161,west-southwest,3.9,No
2016/12/15,16:50,0.382,0.231,0.396,0.366,0.339,0.190,0.162,northwest,4.0,No
2016/12/15,17:00,0.381,0.230,0.396,0.368,0.340,0.190,0.162,west-northwest,5.0,No
2016/12/15,17:10,0.381,0.230,0.393,0.366,0.339,0.190,0.161,west,5.3,No
2016/12/15,17:20,0.382,0.230,0.396,0.366,0.340,0.190,0.162,west,6.4,No
2016/12/15,17:30,0.383,0.231,0.394,0.367,0.339,0.190,0.162,west,5.1,No
2016/12/15,17:40,0.379,0.230,0.395,0.367,0.339,0.190,0.161,west-northwest,2.8,No
2016/12/15,17:50,0.380,0.231,0.396,0.367,0.340,0.189,0.162,west,4.2,No
2016/12/15,18:00,0.382,0.230,0.395,0.366,0.340,0.188,0.161,west-northwest,4.2,No
2016/12/15,18:10,0.382,0.231,0.396,0.366,0.341,0.189,0.162,west-northwest,2.8,No
2016/12/15,18:20,0.380,0.231,0.395,0.367,0.340,0.190,0.162,west,2.8,No
2016/12/15,18:30,0.381,0.231,0.394,0.367,0.341,0.189,0.161,west,2.0,No
2016/12/15,18:40,0.383,0.231,0.396,0.366,0.340,0.190,0.162,west-southwest,2.8,No
2016/12/15,18:50,0.381,0.232,0.396,0.367,0.340,0.189,0.161,west,3.2,No
2016/12/15,19:00,0.379,0.232,0.395,0.368,0.339,0.189,0.161,west,3.0,No
2016/12/15,19:10,0.381,0.231,0.395,0.367,0.340,0.189,0.161,west-northwest,3.6,No
2016/12/15,19:20,0.383,0.231,0.394,0.368,0.340,0.191,0.162,west-northwest,4.3,No
2016/12/15,19:30,0.382,0.230,0.397,0.366,0.339,0.190,0.162,west-southwest,2.2,No
2016/12/15,19:40,0.381,0.231,0.395,0.368,0.339,0.190,0.161,southwest,2.3,No
2016/12/15,19:50,0.381,0.232,0.395,0.366,0.340,0.190,0.162,southwest,3.4,No
2016/12/15,20:00,0.382,0.231,0.395,0.367,0.341,0.189,0.161,west,2.5,No
2016/12/15,20:10,0.382,0.231,0.396,0.366,0.341,0.189,0.161,southwest,3.3,No
2016/12/15,20:20,0.382,0.231,0.395,0.367,0.339,0.189,0.162,west-southwest,2.7,No
2016/12/15,20:30,0.382,0.231,0.396,0.367,0.340,0.190,0.163,west,1.8,No
2016/12/15,20:40,0.383,0.231,0.396,0.366,0.341,0.190,0.163,west,2.7,No
2016/12/15,20:50,0.383,0.230,0.395,0.367,0.340,0.190,0.162,west-northwest,3.3,No
2016/12/15,21:00,0.381,0.231,0.396,0.368,0.341,0.189,0.162,north-northwest,2.0,No
2016/12/15,21:10,0.381,0.231,0.395,0.368,0.340,0.190,0.161,north-northwest,1.7,No
2016/12/15,21:20,0.382,0.232,0.396,0.367,0.340,0.190,0.162,north,3.4,No
2016/12/15,21:30,0.382,0.230,0.394,0.366,0.341,0.190,0.162,north-northwest,3.4,No
2016/12/15,21:40,0.382,0.231,0.395,0.366,0.340,0.189,0.162,northwest,3.1,No
2016/12/15,21:50,0.382,0.231,0.395,0.367,0.339,0.190,0.161,north-northwest,3.4,No
2016/12/15,22:00,0.381,0.231,0.397,0.367,0.339,0.190,0.163,north,3.4,No
2016/12/15,22:10,0.381,0.232,0.395,0.368,0.340,0.190,0.162,north-northwest,3.9,No
2016/12/15,22:20,0.382,0.230,0.396,0.368,0.340,0.189,0.162,north-northwest,3.3,No
2016/12/15,22:30,0.381,0.231,0.396,0.367,0.341,0.191,0.163,northwest,1.5,No
2016/12/15,22:40,0.381,0.231,0.397,0.368,0.340,0.190,0.162,north-northwest,2.3,No
2016/12/15,22:50,0.381,0.232,0.397,0.366,0.340,0.189,0.162,north-northwest,3.1,No
2016/12/15,23:00,0.381,0.233,0.397,0.367,0.340,0.190,0.162,north-northwest,4.8,No
2016/12/15,23:10,0.383,0.232,0.397,0.367,0.340,0.191,0.162,northwest,5.9,No
2016/12/15,23:20,0.383,0.230,0.396,0.368,0.341,0.190,0.162,north-northwest,7.5,No
2016/12/15,23:30,0.382,0.230,0.397,0.367,0.341,0.190,0.162,north-northwest,7.6,No
2016/12/15,23:40,0.382,0.232,0.397,0.366,0.340,0.190,0.162,north-northwest,7.5,No
2016/12/15,23:50,0.382,0.230,0.397,0.367,0.340,0.189,0.163,north-northwest,6.3,No
